Ben Gurion current weather conditions

sailwx.info

Last reported at 2015-Mar-08 00:28 UTC.
Time now 2015-Mar-28 00:40 UTC

Location: N 32°01' E 034°53'.
View on Google Maps.

See reports from other nearby stations

  
Tides and Currents Weather Stations Pressure Air Temp Water Temp Dewpoint Dewpoint Depression Visibility Wind Speed Wind Dir Waves Ship Positions
date/time (UTC)wind fromknots sea level pressurealtimeterstation pressurevisibilityair tempwater tempwave heightnotes
2015-Mar-27 23:20 130 18 28.0
2015-Mar-27 22:50 130 17 28.0
2015-Mar-27 22:20 130 16 29.0
2015-Mar-27 21:50 120 18 29.0
2015-Mar-27 21:20 120 19 gusting 29 29.0
2015-Mar-27 20:50 130 15 gusting 25 29.0
2015-Mar-27 20:20 120 16 gusting 26 29.0
2015-Mar-27 19:50 130 19 30.0
2015-Mar-27 19:20 130 15 30.0
2015-Mar-27 18:50 110 7 30.0
2015-Mar-27 18:20 110 6 29.0
2015-Mar-27 17:50 27.0
2015-Mar-27 17:20 27.0
2015-Mar-27 16:50 260 5 27.0
2015-Mar-27 16:20 29.0
2015-Mar-27 15:50 040 7 30.0
2015-Mar-27 15:20 070 8 31.0
2015-Mar-27 14:50 100 11 32.0
2015-Mar-27 14:20 110 12 32.0
2015-Mar-27 13:50 110 12 32.0
2015-Mar-27 13:20 130 10 32.0
2015-Mar-27 12:50 130 14 32.0
2015-Mar-27 12:20 110 15 32.0
2015-Mar-27 11:50 110 15 32.0
2015-Mar-27 11:20 120 16 32.0
2015-Mar-27 10:50 120 15 31.0
2015-Mar-27 10:20 120 15 31.0
2015-Mar-27 09:50 120 15 30.0
2015-Mar-27 09:20 120 17 30.0
2015-Mar-27 08:50 110 17 29.0
2015-Mar-27 08:20 100 18 28.0
2015-Mar-27 07:50 110 15 28.0
2015-Mar-27 07:20 120 14 28.0
2015-Mar-27 06:50 120 15 27.0
2015-Mar-27 06:20 110 14 26.0
2015-Mar-27 05:50 100 12 25.0
2015-Mar-27 05:20 090 10 24.0
2015-Mar-27 04:50 060 7 22.0
2015-Mar-27 04:20 060 5 21.0
2015-Mar-27 03:50 090 4 23.0
2015-Mar-27 03:20 100 13 23.0
2015-Mar-27 02:50 110 19 23.0
2015-Mar-27 02:20 100 8 22.0
2015-Mar-27 01:50 080 7 20.0
2015-Mar-27 01:20 15.0
2015-Mar-27 00:50 15.0
2015-Mar-27 00:20 16.0
2015-Mar-26 23:50 16.0
2015-Mar-26 23:20 16.0
2015-Mar-26 22:50 16.0
2015-Mar-26 22:20 16.0
2015-Mar-26 21:50 110 4 16.0
2015-Mar-26 21:20 17.0
2015-Mar-26 20:50 17.0
2015-Mar-26 20:20 17.0
2015-Mar-26 19:50 18.0
2015-Mar-26 19:20 18.0
2015-Mar-26 18:50 18.0
2015-Mar-26 18:20 19.0
2015-Mar-26 17:50 19.0
2015-Mar-26 17:20 18.0
2015-Mar-26 16:50 20.0
2015-Mar-26 16:20 20.0
2015-Mar-26 15:50 350 5 21.0
2015-Mar-26 15:20 340 5 22.0
2015-Mar-26 14:50 340 7 22.0
2015-Mar-26 14:20 300 9 22.0
2015-Mar-26 13:50 300 10 24.0
2015-Mar-26 13:20 300 11 24.0
2015-Mar-26 12:50 290 11 24.0
2015-Mar-26 12:20 290 10 24.0
2015-Mar-26 11:50 300 12 25.0
2015-Mar-26 11:20 300 10 25.0
2015-Mar-26 10:50 300 8 25.0
2015-Mar-26 10:20 290 7 25.0
2015-Mar-26 09:50 280 6 24.0
2015-Mar-26 09:20 290 7 24.0
2015-Mar-26 08:50 24.0
2015-Mar-26 08:20 23.0
2015-Mar-26 07:50 22.0
2015-Mar-26 07:20 270 4 20.0
2015-Mar-26 06:50 19.0
2015-Mar-26 06:20 18.0
2015-Mar-26 05:50 17.0
2015-Mar-26 05:20 15.0
2015-Mar-26 04:50 13.0
2015-Mar-26 04:20 12.0
2015-Mar-26 03:50 080 6 10.0
2015-Mar-26 03:20 11.0
2015-Mar-26 02:50 110 5 11.0
2015-Mar-26 02:20 080 4 11.0
2015-Mar-26 01:50 12.0
2015-Mar-26 01:20 13.0
2015-Mar-26 00:50 14.0
2015-Mar-26 00:20 130 5 14.0